Theta_e
303 302 301 301 300 300 301 301 301 301 301 301 302 302 302 303 303 303 302 302 302 302 302 301 300 299 298 298 298 298 298 298 297 296 296 296 296 296 296 296 296 297
304 303 303 302 301 301 300 300 300 300 301 301 301 301 301 302 302 302 302 302 302 302 302 301 301 300 299 298 298 298 297 298 297 297 296 296 296 295 296 296 296 296
303 303 303 303 303 302 301 301 300 300 300 300 301 301 301 301 301 301 301 301 302 301 301 301 301 301 300 299 298 297 297 298 298 297 296 296 295 295 295 295 296 296
302 302 302 302 302 302 302 302 301 300 300 299 300 300 300 300 300 300 300 300 301 301 301 301 301 301 301 300 299 298 298 298 298 298 297 296 295 295 295 295 295 295
300 300 301 301 301 302 302 302 301 301 300 299 299 299 299 299 299 299 300 300 300 300 301 301 301 301 301 301 301 300 299 299 299 299 298 297 296 295 294 294 295 295
298 299 299 300 300 301 301 301 301 301 300 299 299 298 298 299 299 299 299 299 299 299 299 300 300 301 301 301 301 301 301 300 300 299 298 298 297 295 294 294 294 294
297 297 298 298 299 299 300 300 300 301 300 300 300 299 298 298 298 298 298 298 299 299 299 299 299 300 300 300 300 301 301 301 301 300 299 298 298 296 295 294 294 294
297 297 297 297 297 298 298 299 299 300 300 300 300 300 300 299 298 297 297 298 298 298 298 298 298 299 299 299 300 300 300 301 301 301 301 299 298 297 296 294 293 293
296 297 297 297 297 297 297 297 298 298 299 300 300 300 300 300 299 298 297 297 297 297 297 297 298 298 298 298 299 299 300 300 301 301 301 300 300 299 297 295 293 293
295 295 296 296 296 296 296 296 296 297 298 298 299 299 299 300 300 300 299 298 296 296 296 296 297 297 297 298 298 299 299 299 300 300 300 301 301 300 299 297 295 293
294 294 294 294 295 295 296 295 295 295 296 296 297 298 298 298 299 299 299 299 298 297 296 295 296 296 297 297 298 298 298 298 299 299 299 300 300 300 300 299 297 296
292 292 292 293 293 293 294 295 295 295 294 295 295 296 297 297 298 298 298 298 298 298 297 296 295 295 295 296 296 296 297 297 297 298 299 299 299 299 300 300 299 298
289 290 290 291 291 291 292 292 293 294 294 294 294 294 295 296 296 297 297 297 296 297 297 297 296 295 294 294 295 295 295 296 296 297 297 298 298 298 299 299 299 299
288 288 288 289 289 290 290 290 291 292 293 294 294 294 294 294 295 296 296 296 296 295 295 295 295 295 295 294 293 294 294 294 295 295 296 296 297 297 298 298 298 298
288 287 287 287 287 288 289 289 289 290 291 292 293 293 293 294 294 295 295 296 296 295 294 294 293 294 294 294 293 293 293 294 294 294 295 295 295 296 297 297 297 297
287 287 287 286 286 286 287 287 288 288 289 289 290 292 292 293 293 294 294 295 295 295 295 294 293 293 292 292 292 292 292 293 293 293 294 294 294 295 295 296 296 297
286 286 286 286 286 286 286 286 286 287 287 287 288 289 290 291 292 292 293 294 294 295 295 295 295 294 292 291 291 291 291 292 292 292 293 293 293 294 295 295 296 296
286 286 286 286 286 285 285 285 285 286 286 286 286 287 287 288 289 290 291 292 293 294 294 295 295 294 292 291 291 291 291 291 291 291 292 292 292 293 294 294 295 295
286 286 286 286 285 285 285 285 285 285 285 285 286 286 286 286 286 287 288 289 290 292 293 294 295 295 293 291 290 290 290 290 290 291 291 291 292 292 293 293 294 294
286 286 286 286 286 286 285 285 285 285 285 285 285 285 285 286 286 286 286 286 287 288 290 292 294 294 294 292 291 290 290 290 290 290 290 291 291 291 292 292 293 293
286 286 286 286 285 286 285 286 286 286 285 285 285 285 285 285 285 285 285 285 286 286 287 289 291 293 294 293 291 290 289 289 289 289 290 290 290 290 291 291 292 292
285 285 285 285 285 285 285 285 285 286 286 286 285 285 285 285 285 285 285 285 285 285 285 286 288 291 292 293 292 290 289 289 289 289 289 289 290 290 290 290 291 291
284 285 285 285 285 285 285 285 285 285 285 286 285 286 286 285 285 285 285 285 285 285 285 285 286 287 289 292 293 291 289 288 288 288 288 289 289 289 290 290 290 290
284 284 284 284 284 284 284 284 284 285 285 285 285 285 285 285 285 285 285 285 285 285 285 285 285 285 286 289 292 292 290 288 288 288 288 288 289 289 289 289 289 289
283 283 283 283 283 284 284 284 284 284 284 284 284 285 285 285 285 285 286 286 286 285 285 285 285 285 285 286 289 291 291 289 287 287 287 288 288 288 288 288 289 289
282 282 283 283 283 283 283 283 283 284 284 284 284 284 284 285 285 285 285 286 286 286 286 285 285 285 285 285 286 289 291 291 288 287 287 287 288 288 288 288 288 288
Wind_Speed
15 14 15 17 19 21 23 25 27 30 31 32 32 32 31 30 29 29 30 32 36 40 44 48 51 52 52 52 52 51 50 49 49 50 52 52 52 51 51 49 48 46
17 16 16 16 18 19 21 24 25 27 29 31 32 32 32 32 31 30 30 30 32 35 38 43 47 50 51 52 52 52 51 51 50 50 51 52 52 52 52 50 49 48
21 19 17 17 18 18 19 21 23 25 27 29 30 31 32 33 33 33 32 31 31 32 34 37 41 45 49 51 52 52 52 53 52 51 51 52 52 53 53 52 51 50
26 24 21 18 18 18 19 20 22 23 25 27 28 29 30 32 33 33 33 33 33 32 33 34 36 40 44 48 50 52 53 53 53 52 52 53 53 53 54 54 53 52
28 27 26 24 21 19 19 20 21 22 24 25 26 27 28 29 31 32 33 34 34 34 34 34 35 36 39 42 46 50 52 53 53 53 53 53 54 54 56 56 56 55
27 27 27 27 26 24 22 20 19 21 23 23 24 25 26 27 29 30 31 33 34 35 36 36 36 37 38 40 42 46 49 51 53 54 54 55 55 56 57 57 57 57
27 28 28 28 28 28 27 26 23 21 21 22 23 24 23 24 26 28 30 31 33 34 36 37 38 38 39 40 42 44 45 47 50 52 54 56 56 57 57 58 58 58
27 28 29 29 29 29 29 29 28 26 24 23 23 23 23 24 24 25 27 29 32 34 35 36 38 39 40 41 43 44 45 46 47 49 52 55 58 58 58 58 59 59
28 28 28 29 29 30 29 29 29 28 27 26 25 23 23 24 25 25 25 27 30 33 35 36 37 38 40 41 42 43 45 46 47 48 49 52 56 59 59 59 59 60
29 29 29 28 29 29 29 29 29 28 28 28 27 26 24 24 24 25 26 27 29 31 33 35 37 38 39 40 41 43 44 46 47 49 50 51 52 55 58 59 59 60
29 29 29 29 29 29 29 29 30 29 28 28 28 28 27 26 24 24 25 28 29 30 31 33 35 37 38 39 40 42 44 46 48 49 51 52 52 52 53 56 59 61
29 29 29 29 29 29 29 29 30 30 30 29 28 29 29 28 28 26 24 25 27 29 30 31 33 35 37 39 40 42 43 45 48 49 51 53 54 53 52 53 55 58
31 30 29 29 29 30 29 29 29 29 30 30 29 29 29 29 29 29 27 26 26 26 27 29 31 33 36 38 40 42 44 45 48 50 51 53 54 55 55 54 54 55
35 33 31 30 30 30 30 29 29 28 29 29 30 30 30 30 30 30 30 29 28 27 27 27 29 32 34 36 39 41 43 45 48 49 51 53 55 55 56 56 56 56
36 36 34 33 32 31 31 31 31 30 29 29 29 30 30 30 30 30 30 31 30 30 29 28 28 30 32 34 37 39 41 44 46 47 49 52 55 56 57 57 57 57
34 36 36 36 35 34 33 32 32 32 32 31 29 29 29 30 30 30 30 30 31 31 31 30 30 31 32 32 34 37 39 42 45 46 48 51 55 57 57 57 57 57
33 34 35 36 37 36 36 35 34 33 33 33 32 31 30 30 31 31 31 31 31 32 32 32 32 32 32 32 32 34 37 40 43 45 47 50 53 55 56 56 56 58
33 34 35 36 37 38 38 37 36 35 35 34 34 34 33 32 32 32 33 33 33 33 33 34 34 32 31 32 32 33 35 37 40 44 46 49 52 53 54 55 56 58
34 35 35 36 38 39 40 40 39 38 38 37 37 36 36 35 34 34 34 35 35 35 35 35 35 33 31 32 32 33 34 36 38 41 45 48 50 52 52 53 54 56
37 37 37 37 38 40 41 42 42 42 41 40 40 40 39 38 37 36 36 36 36 37 37 37 36 35 34 33 33 32 33 35 37 39 42 45 49 51 51 52 54 55
39 40 40 39 39 39 41 43 44 45 44 43 43 43 42 42 41 40 39 38 38 38 39 39 38 36 36 35 34 33 33 34 37 39 41 44 47 50 52 53 54 55
40 41 42 41 40 40 40 42 43 45 46 46 46 45 44 44 44 43 42 42 41 40 41 41 40 37 36 37 35 33 33 34 37 40 42 44 45 48 51 53 54 54
43 43 43 43 42 42 41 42 43 44 46 47 48 49 48 47 46 45 45 45 44 43 42 43 42 39 36 37 37 34 33 35 38 40 43 45 45 45 47 50 53 54
47 46 46 46 45 45 44 43 44 45 45 46 48 50 51 52 51 49 48 47 47 46 44 44 44 41 38 37 37 35 34 35 38 40 43 44 45 45 46 48 50 52
49 49 49 49 49 48 48 47 47 47 46 47 48 50 51 53 54 55 54 52 50 49 48 46 45 44 41 38 37 36 35 35 37 41 44 45 44 45 46 47 48 50
52 52 52 52 52 53 52 52 51 50 49 49 49 50 51 52 54 56 58 57 54 52 51 49 47 45 43 40 38 37 36 35 36 41 45 46 45 44 46 47 48 49
Wind_Direction
336 323 314 308 302 300 298 297 296 294 293 291 290 290 290 289 286 283 279 274 269 263 258 253 249 247 245 244 244 244 244 243 241 239 238 237 235 234 234 233 233 232
349 332 318 309 304 301 299 297 295 294 293 293 292 291 290 288 287 284 281 277 273 269 264 259 254 250 247 246 245 245 245 244 243 241 240 238 237 236 235 234 233 233
6 353 335 318 306 299 297 295 293 293 292 292 293 293 292 290 288 286 283 279 276 272 268 263 258 254 250 248 246 246 246 246 245 244 242 240 238 236 236 235 234 233
11 8 359 344 323 305 295 290 289 291 292 292 292 293 293 292 290 287 284 281 278 275 272 268 263 259 254 251 249 247 246 246 247 245 243 241 239 237 236 235 234 233
10 11 9 5 354 336 316 300 291 287 288 290 291 291 291 291 290 288 286 284 280 276 273 270 267 263 258 255 252 250 249 247 246 245 244 242 240 237 236 235 234 233
9 9 8 8 7 1 352 337 317 300 291 288 288 288 289 289 289 289 288 286 284 280 276 272 269 265 261 258 255 253 252 250 248 246 244 243 241 239 237 236 234 233
7 6 5 5 4 4 3 360 352 336 317 302 293 289 287 286 287 287 287 287 285 282 280 276 272 268 265 261 257 254 253 252 251 249 246 244 242 241 238 237 235 234
3 1 1 0 0 1 1 0 359 356 347 332 316 303 293 287 284 283 283 284 283 282 280 278 275 272 268 265 261 258 255 254 253 251 249 246 244 242 240 238 236 236
355 355 355 355 355 357 358 358 357 356 354 349 341 329 313 300 291 284 281 280 280 280 279 277 275 273 270 268 265 262 259 257 255 253 251 249 247 245 242 240 238 237
349 349 348 348 349 350 352 353 353 353 352 350 348 344 335 322 307 295 287 282 278 277 277 276 275 273 271 269 267 264 262 260 258 255 253 251 250 248 245 243 240 239
345 344 343 344 344 343 343 345 347 349 349 349 348 346 343 338 327 313 299 289 284 281 279 277 276 274 273 270 268 266 264 262 260 258 255 253 251 250 249 246 244 242
343 342 341 341 340 339 338 338 338 340 343 346 346 345 344 342 337 329 316 301 291 285 281 279 278 276 274 272 271 268 266 264 262 260 258 256 254 252 250 248 247 245
344 343 340 338 337 337 336 335 333 332 334 338 341 342 343 342 340 336 328 317 304 291 282 279 277 276 275 274 272 270 267 265 263 261 260 258 256 254 252 250 248 247
341 341 341 338 335 333 332 332 331 329 327 328 331 335 337 339 338 337 333 327 317 305 292 282 275 273 274 274 272 271 268 266 264 263 261 260 258 256 254 252 249 248
333 335 336 337 335 333 331 329 328 328 327 324 323 325 328 331 333 333 332 329 324 316 305 293 282 274 272 272 273 272 270 268 267 265 263 261 259 258 256 254 252 250
327 327 329 331 332 332 331 330 328 327 327 326 324 322 321 323 325 326 327 327 325 321 314 304 294 285 278 274 273 273 272 270 267 265 263 261 259 258 257 256 254 252
323 322 323 325 326 328 328 328 328 327 326 326 326 324 321 319 320 321 322 323 322 320 317 311 304 296 287 280 275 272 271 269 267 265 263 260 259 259 258 257 256 254
317 317 318 319 320 322 322 323 325 325 325 325 324 325 324 322 320 319 319 319 319 317 316 313 310 303 293 285 279 274 271 269 267 265 262 260 259 259 259 258 257 256
312 312 313 314 315 316 317 317 318 319 321 322 322 323 322 322 322 320 319 318 317 315 314 312 310 308 299 289 281 277 273 269 267 265 262 261 260 259 259 258 257 257
307 308 308 309 310 311 312 312 313 315 316 318 319 319 319 318 319 319 319 318 317 315 313 309 309 310 306 295 285 279 274 270 268 266 263 261 260 260 259 258 257 257
304 304 304 305 305 306 307 308 309 310 311 313 314 314 315 315 315 316 316 316 316 316 313 309 307 309 309 302 290 281 277 273 268 265 262 260 260 259 258 257 257 257
303 302 301 301 302 302 302 303 304 305 306 308 309 309 310 310 311 312 312 312 313 313 312 309 307 306 307 306 297 285 277 274 269 264 261 260 258 258 258 256 256 256
304 302 300 299 299 299 299 298 298 299 301 303 304 305 305 306 307 307 307 308 308 309 310 309 307 306 305 305 302 292 279 272 269 263 261 260 259 259 258 258 257 256
304 302 301 300 298 298 298 296 295 295 296 297 299 300 301 302 303 303 302 303 304 305 306 306 305 306 305 303 302 297 284 272 268 265 262 261 260 260 259 258 258 256
301 300 300 299 298 297 296 295 294 293 293 293 294 295 296 297 299 300 299 299 299 300 302 303 302 303 304 302 300 298 289 276 269 265 262 260 259 258 257 257 257 256
299 298 297 297 296 296 295 294 293 293 292 291 291 291 291 292 293 295 296 295 296 296 297 298 299 300 301 302 299 296 291 281 270 263 261 259 258 256 255 254 254 254